Washington, PA

5:04 AM EDT on March 30, 2017 (GMT -0400)
Washington County

Weather History for KAFJ - April, 2013

Change the Weather History Date:

Tuesday, April 9, 2013

  Actual Average Record
Temperature  
Mean Temperature 61 °F -  
Max Temperature 71 °F 58 °F 78 °F (2001)
Min Temperature 51 °F 36 °F 21 °F (1997)
Degree Days  
Heating Degree Days 4    
Growing Degree Days 11 (Base 50)    
Moisture  
Dew Point 49 °F    
Average Humidity 61    
Maximum Humidity 88    
Minimum Humidity 43    
Precipitation  
Precipitation 0.00 in - - ()
Sea Level Pressure  
Sea Level Pressure 30.07 in    
Wind  
Wind Speed 7 mph (SW)    
Max Wind Speed 12 mph    
Max Gust Speed -    
Visibility 10 miles    
Events      
Averages and records for this station are not official NWS values.
T = Trace of Precipitation, MM = Missing Value Source: NWS Daily Summary

Daily Weather History Graph

Daily Weather History Graph

Search for Another Location

Airport or City:

Trip Planner

Search our weather history database for the weather conditions in past years. The results will help you decide how hot, cold, wet, or windy it might be!

Date:

Astronomy

Apr. 09, 2013 Rise Set
Actual Time 6:51 AM EDT 7:53 PM EDT
Civil Twilight 6:24 AM EDT 8:21 PM EDT
Nautical Twilight 5:51 AM EDT 8:54 PM EDT
Astronomical Twilight 5:16 AM EDT 9:29 PM EDT
Moon 6:13 AM EDT (4/9) 7:28 PM EDT (4/9)
Length of Visible Light 13h 57m
Length of Day
13h 01m
Waning Crescent, 1% of the Moon is Illuminated
Apr 9
Waning Crescent
Apr 10
New
Apr 18
First Quarter
Apr 25
Full
May 2
Last Quarter

Hourly Weather History & Observations

Time (EDT) Temp. Dew Point Humidity Pressure Visibility Wind Dir Wind Speed Gust Speed Precip Events Conditions
12:15 AM 66.2 °F 46.4 °F 49% 30.04 in 10.0 mi SW 8.1 mph - N/A   Overcast
12:35 AM 64.4 °F 46.4 °F 52% 30.04 in 10.0 mi SW 6.9 mph - N/A   Overcast
12:55 AM 64.4 °F 46.4 °F 52% 30.04 in 10.0 mi SW 6.9 mph - N/A   Mostly Cloudy
1:15 AM 64.4 °F 46.4 °F 52% 30.04 in 10.0 mi SW 8.1 mph - N/A   Mostly Cloudy
1:35 AM 64.4 °F 46.4 °F 52% 30.05 in 10.0 mi SW 8.1 mph - N/A   Overcast
1:55 AM 64.4 °F 46.4 °F 52% 30.05 in 10.0 mi WSW 9.2 mph - N/A   Overcast
2:15 AM 64.4 °F 46.4 °F 52% 30.05 in 10.0 mi WSW 8.1 mph - N/A   Overcast
2:35 AM 64.4 °F 48.2 °F 56% 30.05 in 10.0 mi WSW 8.1 mph - N/A   Mostly Cloudy
2:55 AM 64.4 °F 48.2 °F 56% 30.05 in 10.0 mi WSW 9.2 mph - N/A   Mostly Cloudy
3:15 AM 64.4 °F 48.2 °F 56% 30.05 in 10.0 mi WSW 8.1 mph - N/A   Mostly Cloudy
3:35 AM 64.4 °F 48.2 °F 56% 30.05 in 10.0 mi WSW 10.4 mph - N/A   Overcast
3:55 AM 62.6 °F 48.2 °F 59% 30.06 in 10.0 mi WSW 6.9 mph - N/A   Mostly Cloudy
4:15 AM 62.6 °F 48.2 °F 59% 30.06 in 10.0 mi WSW 6.9 mph - N/A   Mostly Cloudy
4:35 AM 62.6 °F 48.2 °F 59% 30.07 in 10.0 mi WSW 6.9 mph - N/A   Mostly Cloudy
4:55 AM 62.6 °F 48.2 °F 59% 30.08 in 10.0 mi WSW 6.9 mph - N/A   Mostly Cloudy
5:15 AM 60.8 °F 48.2 °F 63% 30.08 in 10.0 mi WSW 5.8 mph - N/A   Partly Cloudy
5:35 AM 59.0 °F 48.2 °F 67% 30.09 in 10.0 mi WSW 3.5 mph - N/A   Clear
5:55 AM 57.2 °F 48.2 °F 72% 30.09 in 10.0 mi WSW 4.6 mph - N/A   Clear
6:15 AM 55.4 °F 48.2 °F 77% 30.10 in 10.0 mi WSW 3.5 mph - N/A   Clear
6:35 AM 53.6 °F 46.4 °F 77% 30.11 in 10.0 mi SW 3.5 mph - N/A   Partly Cloudy
6:55 AM 51.8 °F 46.4 °F 82% 30.12 in 10.0 mi SSW 3.5 mph - N/A   Clear
7:15 AM 53.6 °F 48.2 °F 82% 30.13 in 10.0 mi Calm Calm - N/A   Clear
7:35 AM 51.8 °F 48.2 °F 88% 30.13 in 10.0 mi Calm Calm - N/A   Clear
7:55 AM 53.6 °F 48.2 °F 82% 30.14 in 10.0 mi Calm Calm - N/A   Clear
8:15 AM 55.4 °F 50.0 °F 82% 30.15 in 10.0 mi Calm Calm - N/A   Clear
8:35 AM 59.0 °F 51.8 °F 77% 30.15 in 10.0 mi Calm Calm - N/A   Clear
8:55 AM 62.6 °F 51.8 °F 68% 30.15 in 10.0 mi SW 3.5 mph - N/A   Clear
9:15 AM 64.4 °F 51.8 °F 64% 30.15 in 10.0 mi West 5.8 mph - N/A   Clear
9:35 AM 64.4 °F 51.8 °F 64% 30.15 in 10.0 mi SW 6.9 mph - N/A   Clear
9:55 AM 66.2 °F 51.8 °F 60% 30.14 in 10.0 mi SSW 5.8 mph - N/A   Clear
10:15 AM 66.2 °F 51.8 °F 60% - 10.0 mi North - - N/A   Clear
10:35 AM - - N/A% - 10.0 mi North - - N/A   Clear
10:55 AM - - N/A% - 10.0 mi North - - N/A   Clear
11:15 AM - - N/A% - 10.0 mi North - - N/A   Partly Cloudy
11:35 AM - - N/A% - 10.0 mi North - - N/A   Scattered Clouds
11:55 AM - - N/A% - 10.0 mi North - - N/A   Scattered Clouds
12:15 PM - - N/A% - 10.0 mi North - - N/A   Scattered Clouds
12:35 PM - - N/A% - 10.0 mi North - - N/A   Mostly Cloudy
12:55 PM - - N/A% - 10.0 mi North - - N/A   Overcast
1:15 PM - - N/A% - 10.0 mi North - - N/A   Overcast
1:35 PM - - N/A% - 10.0 mi North - - N/A   Overcast
1:55 PM - - N/A% - 10.0 mi North - - N/A   Mostly Cloudy
2:15 PM - - N/A% - 10.0 mi North - - N/A   Mostly Cloudy
2:35 PM - - N/A% - 10.0 mi North - - N/A   Mostly Cloudy
2:55 PM - - N/A% - 10.0 mi North - - N/A   Overcast
3:15 PM - - N/A% - 10.0 mi North - - N/A   Overcast
3:35 PM - - N/A% - 10.0 mi North - - N/A   Overcast
3:55 PM - - N/A% - 10.0 mi North - - N/A   Mostly Cloudy
4:15 PM - - N/A% - 10.0 mi North - - N/A   Mostly Cloudy
4:35 PM - - N/A% - 10.0 mi North - - N/A   Overcast
4:55 PM - - N/A% - 10.0 mi North - - N/A   Mostly Cloudy
5:15 PM - - N/A% - 10.0 mi North - - N/A   Scattered Clouds
5:35 PM - - N/A% - 10.0 mi North - - N/A   Partly Cloudy
5:55 PM - - N/A% - 10.0 mi North - - N/A   Scattered Clouds
6:15 PM - - N/A% - 10.0 mi North - - N/A   Partly Cloudy
6:35 PM - - N/A% - 10.0 mi North - - N/A   Scattered Clouds
6:55 PM - - N/A% - 10.0 mi North - - N/A   Scattered Clouds
7:15 PM - - N/A% - 10.0 mi North - - N/A   Clear
7:35 PM - - N/A% - 10.0 mi North - - N/A   Clear
7:55 PM - - N/A% - 10.0 mi North - - N/A   Clear
8:15 PM - - N/A% - 10.0 mi North - - N/A   Clear
8:35 PM - - N/A% - 10.0 mi North - - N/A   Clear
8:55 PM - - N/A% - 10.0 mi North - - N/A   Clear
9:15 PM - - N/A% - 10.0 mi North - - N/A   Clear
9:35 PM 69.8 °F 51.8 °F 53% 29.98 in 10.0 mi SSW 5.8 mph - N/A   Clear
9:55 PM 68.0 °F 51.8 °F 56% 29.98 in 10.0 mi SSW 5.8 mph - N/A   Clear
10:15 PM 69.8 °F 51.8 °F 53% 29.98 in 10.0 mi SSW 4.6 mph - N/A   Clear
10:55 PM 69.8 °F 50.0 °F 49% 29.99 in 10.0 mi SW 9.2 mph - N/A   Clear
11:15 PM 71.6 °F 48.2 °F 43% 29.98 in 10.0 mi SW 11.5 mph - N/A   Clear
11:35 PM 69.8 °F 48.2 °F 46% 29.99 in 10.0 mi WSW 6.9 mph - N/A   Clear
11:55 PM 68.0 °F 48.2 °F 49% 29.99 in 10.0 mi SW 6.9 mph - N/A   Clear